Time,TemperatureF,DewpointF,PressureIn,WindDirection,WindDirectionDegrees,WindSpeedMPH,WindSpeedGustMPH,Humidity,HourlyPrecipIn,Conditions,Clouds,dailyrainin,SoftwareType,DateUTC
2013-01-05 00:02:00,51.6,47.0,30.55,SW,215,4.0,-999.0,83,-99.99,,,0.00,weatherlink.com 1.10,2013-01-05 00:02:00,
2013-01-05 00:17:00,51.5,47.0,30.55,SSW,211,0.0,-999.0,83,-99.99,,,0.00,weatherlink.com 1.10,2013-01-05 00:17:00,
2013-01-05 00:32:00,51.4,46.0,30.56,SW,221,8.0,-999.0,83,-99.99,,,0.00,weatherlink.com 1.10,2013-01-05 00:32:00,
2013-01-05 00:47:00,51.6,46.0,30.55,SSW,202,5.0,-999.0,81,-99.99,,,0.00,weatherlink.com 1.10,2013-01-05 00:47:00,
2013-01-05 01:02:00,51.7,46.0,30.55,SSW,204,6.0,-999.0,80,-99.99,,,0.00,weatherlink.com 1.10,2013-01-05 01:02:00,
2013-01-05 01:17:00,51.7,46.0,30.54,SW,232,8.0,-999.0,80,-99.99,,,0.00,weatherlink.com 1.10,2013-01-05 01:17:00,
2013-01-05 01:32:00,51.7,46.0,30.54,SW,229,14.0,-999.0,80,-99.99,,,0.00,weatherlink.com 1.10,2013-01-05 01:32:00,
2013-01-05 01:47:00,51.8,46.0,30.54,SW,224,6.0,-999.0,80,-99.99,,,0.00,weatherlink.com 1.10,2013-01-05 01:47:00,
2013-01-05 02:02:00,51.6,46.0,30.54,SW,216,6.0,-999.0,81,-99.99,,,0.00,weatherlink.com 1.10,2013-01-05 02:02:00,
2013-01-05 02:17:00,51.4,46.0,30.54,SSW,200,7.0,-999.0,81,-99.99,,,0.00,weatherlink.com 1.10,2013-01-05 02:17:00,
2013-01-05 02:32:00,51.3,46.0,30.54,SW,219,6.0,-999.0,81,-99.99,,,0.00,weatherlink.com 1.10,2013-01-05 02:32:00,
2013-01-05 02:47:00,51.3,46.0,30.54,SW,221,6.0,-999.0,81,-99.99,,,0.00,weatherlink.com 1.10,2013-01-05 02:47:00,
2013-01-05 03:02:00,51.2,46.0,30.54,SW,231,7.0,-999.0,81,-99.99,,,0.00,weatherlink.com 1.10,2013-01-05 03:02:00,
2013-01-05 03:17:00,51.1,46.0,30.54,SW,227,10.0,-999.0,82,-99.99,,,0.00,weatherlink.com 1.10,2013-01-05 03:17:00,
2013-01-05 03:32:00,50.9,46.0,30.54,SW,225,4.0,-999.0,82,-99.99,,,0.00,weatherlink.com 1.10,2013-01-05 03:32:00,
2013-01-05 03:47:00,50.9,46.0,30.54,SSW,211,6.0,-999.0,83,-99.99,,,0.00,weatherlink.com 1.10,2013-01-05 03:47:00,
2013-01-05 04:02:00,50.9,46.0,30.54,SSW,211,5.0,-999.0,83,-99.99,,,0.00,weatherlink.com 1.10,2013-01-05 04:02:00,
2013-01-05 04:17:00,50.7,46.0,30.54,SW,233,5.0,-999.0,83,-99.99,,,0.00,weatherlink.com 1.10,2013-01-05 04:17:00,
2013-01-05 04:32:00,50.7,46.0,30.54,SW,226,3.0,-999.0,83,-99.99,,,0.00,weatherlink.com 1.10,2013-01-05 04:32:00,
2013-01-05 04:47:00,50.7,46.0,30.54,SW,215,6.0,-999.0,83,-99.99,,,0.00,weatherlink.com 1.10,2013-01-05 04:47:00,
2013-01-05 05:02:00,50.8,46.0,30.54,SSW,206,2.0,-999.0,83,-99.99,,,0.00,weatherlink.com 1.10,2013-01-05 05:02:00,
2013-01-05 05:17:00,50.9,46.0,30.54,SW,232,4.0,-999.0,83,-99.99,,,0.00,weatherlink.com 1.10,2013-01-05 05:17:00,
2013-01-05 05:32:00,51.0,46.0,30.54,SW,225,4.0,-999.0,83,-99.99,,,0.00,weatherlink.com 1.10,2013-01-05 05:32:00,
2013-01-05 05:47:00,51.1,46.0,30.54,SSW,194,3.0,-999.0,83,-99.99,,,0.00,weatherlink.com 1.10,2013-01-05 05:47:00,
2013-01-05 06:02:00,51.0,46.0,30.53,SSW,200,7.0,-999.0,83,-99.99,,,0.00,weatherlink.com 1.10,2013-01-05 06:02:00,
2013-01-05 06:17:00,51.0,46.0,30.53,SSW,208,4.0,-999.0,83,-99.99,,,0.00,weatherlink.com 1.10,2013-01-05 06:17:00,
2013-01-05 06:32:00,51.1,46.0,30.53,SW,214,3.0,-999.0,83,-99.99,,,0.00,weatherlink.com 1.10,2013-01-05 06:32:00,
2013-01-05 06:47:00,51.1,46.0,30.54,SW,234,5.0,-999.0,83,-99.99,,,0.00,weatherlink.com 1.10,2013-01-05 06:47:00,
2013-01-05 07:02:00,51.2,46.0,30.54,SW,225,4.0,-999.0,83,-99.99,,,0.00,weatherlink.com 1.10,2013-01-05 07:02:00,
2013-01-05 07:18:00,51.2,46.0,30.54,SW,232,5.0,-999.0,83,-99.99,,,0.00,weatherlink.com 1.10,2013-01-05 07:18:00,
2013-01-05 07:32:00,51.2,46.0,30.54,SW,225,7.0,-999.0,81,-99.99,,,0.00,weatherlink.com 1.10,2013-01-05 07:32:00,
2013-01-05 07:47:00,51.2,46.0,30.53,SW,225,9.0,-999.0,82,-99.99,,,0.00,weatherlink.com 1.10,2013-01-05 07:47:00,
2013-01-05 08:02:00,51.0,46.0,30.53,SW,229,5.0,-999.0,82,-99.99,,,0.00,weatherlink.com 1.10,2013-01-05 08:02:00,
2013-01-05 08:32:00,50.6,45.0,30.53,SSW,213,6.0,-999.0,81,-99.99,,,0.00,weatherlink.com 1.10,2013-01-05 08:32:00,
2013-01-05 08:47:00,50.5,45.0,30.53,SSW,213,6.0,-999.0,81,-99.99,,,0.00,weatherlink.com 1.10,2013-01-05 08:47:00,
2013-01-05 09:02:00,50.4,45.0,30.53,SSW,208,8.0,-999.0,81,-99.99,,,0.00,weatherlink.com 1.10,2013-01-05 09:02:00,
2013-01-05 09:17:00,50.3,45.0,30.53,SSW,205,4.0,-999.0,82,-99.99,,,0.00,weatherlink.com 1.10,2013-01-05 09:17:00,
2013-01-05 09:32:00,50.3,45.0,30.53,SSW,196,2.0,-999.0,83,-99.99,,,0.00,weatherlink.com 1.10,2013-01-05 09:32:00,
2013-01-05 09:47:00,50.4,45.0,30.54,SSW,206,7.0,-999.0,83,-99.99,,,0.00,weatherlink.com 1.10,2013-01-05 09:47:00,
2013-01-05 10:02:00,50.7,46.0,30.54,SSW,212,7.0,-999.0,83,-99.99,,,0.00,weatherlink.com 1.10,2013-01-05 10:02:00,
2013-01-05 10:18:00,50.9,46.0,30.55,SSW,205,6.0,-999.0,83,-99.99,,,0.00,weatherlink.com 1.10,2013-01-05 10:18:00,
2013-01-05 10:32:00,51.2,46.0,30.55,SW,231,5.0,-999.0,82,-99.99,,,0.00,weatherlink.com 1.10,2013-01-05 10:32:00,
2013-01-05 10:47:00,51.6,46.0,30.55,SSW,207,12.0,-999.0,81,-99.99,,,0.00,weatherlink.com 1.10,2013-01-05 10:47:00,
2013-01-05 11:03:00,52.1,46.0,30.55,SW,217,11.0,-999.0,80,-99.99,,,0.00,weatherlink.com 1.10,2013-01-05 11:03:00,
2013-01-05 11:17:00,52.3,46.0,30.55,SW,222,5.0,-999.0,80,-99.99,,,0.00,weatherlink.com 1.10,2013-01-05 11:17:00,
2013-01-05 11:32:00,52.4,46.0,30.54,SW,219,10.0,-999.0,79,-99.99,,,0.00,weatherlink.com 1.10,2013-01-05 11:32:00,
2013-01-05 11:47:00,52.7,47.0,30.54,SSW,211,5.0,-999.0,80,-99.99,,,0.00,weatherlink.com 1.10,2013-01-05 11:47:00,
2013-01-05 12:02:00,52.9,47.0,30.53,SSW,201,10.0,-999.0,79,-99.99,,,0.00,weatherlink.com 1.10,2013-01-05 12:02:00,
2013-01-05 12:17:00,52.8,47.0,30.52,SSW,200,11.0,-999.0,80,-99.99,,,0.00,weatherlink.com 1.10,2013-01-05 12:17:00,
2013-01-05 12:32:00,52.7,47.0,30.53,SSW,199,11.0,-999.0,80,-99.99,,,0.00,weatherlink.com 1.10,2013-01-05 12:32:00,
2013-01-05 12:47:00,52.7,47.0,30.52,SW,217,6.0,-999.0,80,-99.99,,,0.00,weatherlink.com 1.10,2013-01-05 12:47:00,
2013-01-05 13:02:00,52.6,47.0,30.52,SW,231,12.0,-999.0,81,-99.99,,,0.00,weatherlink.com 1.10,2013-01-05 13:02:00,
2013-01-05 13:17:00,52.5,47.0,30.51,SSW,210,11.0,-999.0,81,-99.99,,,0.00,weatherlink.com 1.10,2013-01-05 13:17:00,
2013-01-05 13:32:00,52.6,47.0,30.51,South,190,9.0,-999.0,81,-99.99,,,0.00,weatherlink.com 1.10,2013-01-05 13:32:00,
2013-01-05 13:47:00,52.5,47.0,30.52,WSW,248,10.0,-999.0,81,-99.99,,,0.00,weatherlink.com 1.10,2013-01-05 13:47:00,
2013-01-05 14:02:00,52.6,47.0,30.52,SW,232,4.0,-999.0,81,-99.99,,,0.00,weatherlink.com 1.10,2013-01-05 14:02:00,
2013-01-05 14:17:00,52.6,47.0,30.52,WSW,242,11.0,-999.0,81,-99.99,,,0.00,weatherlink.com 1.10,2013-01-05 14:17:00,
2013-01-05 14:32:00,52.5,47.0,30.52,SSW,206,13.0,-999.0,81,-99.99,,,0.00,weatherlink.com 1.10,2013-01-05 14:32:00,
2013-01-05 14:47:00,52.6,47.0,30.52,SW,215,5.0,-999.0,81,-99.99,,,0.00,weatherlink.com 1.10,2013-01-05 14:47:00,
2013-01-05 15:02:00,52.4,47.0,30.52,WSW,242,0.0,-999.0,82,-99.99,,,0.00,weatherlink.com 1.10,2013-01-05 15:02:00,
2013-01-05 15:17:00,52.4,47.0,30.52,SW,230,5.0,-999.0,82,-99.99,,,0.00,weatherlink.com 1.10,2013-01-05 15:17:00,
2013-01-05 15:32:00,52.2,47.0,30.51,SW,229,6.0,-999.0,83,-99.99,,,0.00,weatherlink.com 1.10,2013-01-05 15:32:00,
2013-01-05 15:47:00,51.9,47.0,30.51,WSW,251,12.0,-999.0,83,-99.99,,,0.00,weatherlink.com 1.10,2013-01-05 15:47:00,
2013-01-05 16:16:00,51.5,47.0,30.51,SW,216,10.0,-999.0,83,-99.99,,,0.00,weatherlink.com 1.10,2013-01-05 16:16:00,
2013-01-05 16:31:00,51.2,46.0,30.51,WSW,238,10.0,-999.0,83,-99.99,,,0.00,weatherlink.com 1.10,2013-01-05 16:31:00,
2013-01-05 16:46:00,51.0,46.0,30.52,SW,232,6.0,-999.0,84,-99.99,,,0.00,weatherlink.com 1.10,2013-01-05 16:46:00,
2013-01-05 17:01:00,51.0,46.0,30.52,SW,229,10.0,-999.0,84,-99.99,,,0.00,weatherlink.com 1.10,2013-01-05 17:01:00,
2013-01-05 17:16:00,51.0,46.0,30.52,WSW,250,4.0,-999.0,84,-99.99,,,0.00,weatherlink.com 1.10,2013-01-05 17:16:00,
2013-01-05 17:31:00,51.0,47.0,30.52,WSW,248,5.0,-999.0,85,-99.99,,,0.00,weatherlink.com 1.10,2013-01-05 17:31:00,
2013-01-05 17:46:00,51.1,47.0,30.53,WSW,239,7.0,-999.0,85,-99.99,,,0.00,weatherlink.com 1.10,2013-01-05 17:46:00,
2013-01-05 18:01:00,51.1,46.0,30.53,WSW,245,1.0,-999.0,84,-99.99,,,0.00,weatherlink.com 1.10,2013-01-05 18:01:00,
2013-01-05 18:16:00,50.9,46.0,30.52,SW,234,3.0,-999.0,84,-99.99,,,0.00,weatherlink.com 1.10,2013-01-05 18:16:00,
2013-01-05 18:31:00,50.9,46.0,30.52,SW,227,6.0,-999.0,84,-99.99,,,0.00,weatherlink.com 1.10,2013-01-05 18:31:00,
2013-01-05 18:46:00,50.9,46.0,30.52,WSW,237,5.0,-999.0,84,-99.99,,,0.00,weatherlink.com 1.10,2013-01-05 18:46:00,
2013-01-05 19:01:00,51.0,46.0,30.52,WSW,250,4.0,-999.0,84,-99.99,,,0.00,weatherlink.com 1.10,2013-01-05 19:01:00,
2013-01-05 19:16:00,50.9,47.0,30.52,WSW,244,11.0,-999.0,85,-99.99,,,0.00,weatherlink.com 1.10,2013-01-05 19:16:00,
2013-01-05 19:31:00,50.8,47.0,30.52,WSW,240,6.0,-999.0,85,-99.99,,,0.00,weatherlink.com 1.10,2013-01-05 19:31:00,
2013-01-05 19:46:00,50.8,47.0,30.52,WSW,250,5.0,-999.0,85,-99.99,,,0.00,weatherlink.com 1.10,2013-01-05 19:46:00,
2013-01-05 20:01:00,50.5,46.0,30.51,WSW,239,7.0,-999.0,85,-99.99,,,0.00,weatherlink.com 1.10,2013-01-05 20:01:00,
2013-01-05 20:16:00,50.5,46.0,30.52,WSW,244,0.0,-999.0,85,-99.99,,,0.00,weatherlink.com 1.10,2013-01-05 20:16:00,
2013-01-05 20:31:00,50.5,46.0,30.51,West,268,3.0,-999.0,85,-99.99,,,0.00,weatherlink.com 1.10,2013-01-05 20:31:00,
2013-01-05 20:46:00,50.5,46.0,30.51,SW,231,2.0,-999.0,85,-99.99,,,0.00,weatherlink.com 1.10,2013-01-05 20:46:00,
2013-01-05 21:01:00,50.4,46.0,30.50,WSW,246,1.0,-999.0,85,-99.99,,,0.00,weatherlink.com 1.10,2013-01-05 21:01:00,
2013-01-05 21:16:00,50.3,46.0,30.50,WSW,252,5.0,-999.0,85,-99.99,,,0.00,weatherlink.com 1.10,2013-01-05 21:16:00,
2013-01-05 21:31:00,50.2,46.0,30.50,SW,235,4.0,-999.0,85,-99.99,,,0.00,weatherlink.com 1.10,2013-01-05 21:31:00,
2013-01-05 21:46:00,50.1,46.0,30.49,SW,235,2.0,-999.0,85,-99.99,,,0.00,weatherlink.com 1.10,2013-01-05 21:46:00,
2013-01-05 22:01:00,50.2,46.0,30.49,SW,234,6.0,-999.0,86,-99.99,,,0.00,weatherlink.com 1.10,2013-01-05 22:01:00,
2013-01-05 22:16:00,50.1,46.0,30.50,SSW,200,4.0,-999.0,86,-99.99,,,0.00,weatherlink.com 1.10,2013-01-05 22:16:00,
2013-01-05 22:31:00,50.1,46.0,30.49,SW,217,6.0,-999.0,86,-99.99,,,0.00,weatherlink.com 1.10,2013-01-05 22:31:00,
2013-01-05 22:46:00,49.9,46.0,30.49,WSW,240,5.0,-999.0,86,-99.99,,,0.00,weatherlink.com 1.10,2013-01-05 22:46:00,
2013-01-05 23:01:00,49.8,46.0,30.49,WSW,239,2.0,-999.0,86,-99.99,,,0.00,weatherlink.com 1.10,2013-01-05 23:01:00,
2013-01-05 23:16:00,49.7,46.0,30.48,SSW,211,3.0,-999.0,86,-99.99,,,0.00,weatherlink.com 1.10,2013-01-05 23:16:00,
2013-01-05 23:31:00,49.9,46.0,30.49,SSW,211,2.0,-999.0,85,-99.99,,,0.00,weatherlink.com 1.10,2013-01-05 23:31:00,
2013-01-05 23:46:00,49.8,46.0,30.49,SSW,211,2.0,-999.0,85,-99.99,,,0.00,weatherlink.com 1.10,2013-01-05 23:46:00,